TeikyoSat 4
1 49396U 21102B   25299.63780854  .00003329  00000-0  21806-3 0  9992
2 49396  97.3964 332.9991 0012919  23.8535 336.3290 15.08322780217502
Z-Sat
1 49399U 21102E   25299.85079354  .00006482  00000-0  34173-3 0  9999
2 49399  97.3649 337.2079 0016978 346.3060  13.7710 15.15781150218068
KOSEN 1
1 49402U 21102H   25299.66215410  .00009613  00000-0  41654-3 0  9999
2 49402  97.3541 341.5506 0013748 316.3038  43.7110 15.22509368218436
HO-113
1 50466U 21131B   25299.85207098  .00000908  00000-0  29607-3 0  9999
2 50466  98.5071  28.5097 0005216  83.2713 276.9069 14.41014410201509
SNUGLITE 2
1 52899U 22065F   25299.83957257  .00001969  00000-0  38773-3 0  9997
2 52899  98.1893  80.6550 0008202  43.3199 316.8646 14.63636671176852
UmKA 1 (RS40S)
1 57172U 23091G   25299.79926242  .00007374  00000-0  37330-3 0  9995
2 57172  97.5405 354.4813 0013139 206.4490 153.6074 15.17231262128573
CubeBel-2 (EU11S)
1 57175U 23091K   25299.81541241  .00013054  00000-0  56693-3 0  9998
2 57175  97.5404 356.5920 0010649 209.5532 150.5103 15.22392192128712
ENSO
1 58470U 23185J   25298.09129247  .00524137  11009-3  15607-2 0  9990
2 58470  97.3514  19.7505 0006850 270.3016  89.7473 15.92395026106568
SONATE-2
1 59112U 24043Q   25299.64697194  .00027686  00000-0  65428-3 0  9991
2 59112  97.5310  74.2739 0009337 338.8503  21.2356 15.41763676 91712
MO-122
1 60209U 24125G   25299.55159801  .00030277  00000-0  69624-3 0  9991
2 60209  97.2591 150.0075 0016464   2.8267 357.3071 15.42464846 73321
GRBBeta
1 60237U 24128C   25299.62666500  .00004855  00000-0  35182-3 0  9997
2 60237  61.9910 314.2853 0057078  86.5440 274.2178 15.04073483 71101
Curium One
1 60242U 24128H   25299.59243213  .00009180  00000-0  59099-3 0  9990
2 60242  61.9804 310.3269 0056944  83.0761 277.6805 15.07639263 71174
ROBUSTA-3A
1 60243U 24128J   25299.37766839  .00008626  00000-0  56570-3 0  9996
2 60243  61.9878 312.4174 0056579  80.5407 280.2075 15.07037265 71125
CatSat
1 60246U 24125J   25299.31869863  .00031125  00000-0  86188-3 0  9999
2 60246  97.2403 147.3419 0036131 320.8582  39.0050 15.36251268 71235
HYPERVIEW-1G (RS66S)
1 61772U 24199AP  25299.86295862  .00040987  00000-0  92260-3 0  9991
2 61772  97.3270 168.8653 0013574  56.3061 303.9478 15.43088262 98371
AO-123
1 61781U 24199AY  25299.88414498  .00010839  00000-0  36674-3 0  9991
2 61781  97.3300 165.8782 0016933  65.7494 294.5514 15.30645911 98171
ZIMSAT 2
1 61783U 24199BA  25299.89814627  .00108190  00000-0  14846-2 0  9996
2 61783  97.3195 171.1528 0011816  52.9741 307.2593 15.56893120101686
HADES-R (SO-124)
1 62690U 25009CK  25299.21996178  .00083545  00000-0  17762-2 0  9999
2 62690  97.3958  20.5546 0002578 289.4569  70.6401 15.44683784 43413
HYDRA-T
1 62692U 25009CM  25299.16832667  .00098995  00000-0  20497-2 0  9991
2 62692  97.3958  20.6232 0002650 279.8804  80.2146 15.45401223 43414
JINJUSat 1B
1 63210U 25052A   25299.69228769  .00017393  00000-0  70783-3 0  9993
2 63210  97.4214 192.2117 0003748 156.2128 203.9283 15.24568332 34419
NUSHSAT 1
1 63211U 25052B   25299.64926124  .00020669  00000-0  82232-3 0  9991
2 63211  97.4202 192.2372 0003419 159.4029 200.7347 15.25293300 34417
TEVEL2-4
1 63213U 25052D   25299.69747726  .00019037  00000-0  76960-3 0  9995
2 63213  97.4120 191.9298 0002084 160.8986 199.2330 15.24775670 34414
TEVEL2-5
1 63214U 25052E   25299.63539073  .00018670  00000-0  75611-3 0  9998
2 63214  97.4116 191.8611 0002127 162.7380 197.3930 15.24721086 34401
TEVEL2-6
1 63215U 25052F   25299.64123671  .00019300  00000-0  78248-3 0  9993
2 63215  97.4120 191.8572 0002119 163.3657 196.7650 15.24677069 34401
TEVEL2-1
1 63217U 25052H   25299.67454749  .00018809  00000-0  76920-3 0  9999
2 63217  97.4094 191.7390 0001561 186.7428 173.3789 15.24392092 34409
TEVEL2-3
1 63218U 25052J   25299.67429569  .00018675  00000-0  76342-3 0  9991
2 63218  97.4095 191.7422 0001565 188.5533 171.5678 15.24406151 34407
TEVEL2-2
1 63219U 25052K   25299.67532611  .00018544  00000-0  75847-3 0  9999
2 63219  97.4092 191.7397 0001557 188.2250 171.8963 15.24390358 34401
TEVEL2-9
1 63237U 25052AD  25299.65970206  .00017949  00000-0  76459-3 0  9991
2 63237  97.4152 191.4934 0005085 242.6272 117.4448 15.23013047 34377
TEVEL2-7
1 63238U 25052AE  25299.66949475  .00017304  00000-0  73981-3 0  9999
2 63238  97.4158 191.4853 0005143 242.8392 117.2320 15.22895759 34378
TEVEL2-8
1 63239U 25052AF  25299.67429330  .00017196  00000-0  73582-3 0  9990
2 63239  97.4155 191.4768 0005086 243.1818 116.8899 15.22867858 34379
HYDRA-W
1 63490U 25052BL  25299.64436755  .00053170  00000-0  16153-2 0  9997
2 63490  97.4095 193.0245 0005626 225.9248 134.1532 15.33869577 34485
HADES-ICM (SO-125)
1 63492U 25052BN  25299.26560530  .00045975  00000-0  14539-2 0  9996
2 63492  97.4095 192.4814 0006116 238.7041 121.3603 15.32626554 34415
Dragonfly
1 65729U 98067XH  25299.46893697  .00090605  00000-0  11612-2 0  9991
2 65729  51.6324  15.1346 0002631  44.5719 315.5485 15.58402280  5768
RSP-03
1 65732U 98067XL  25299.60610897  .00078424  00000-0  10387-2 0  9993
2 65732  51.6328  14.5508 0004928  18.6929 341.4243 15.57580973  5793
GHS-01
1 65733U 98067XM  25299.78362116  .00099902  00000-0  12483-2 0  9994
2 65733  51.6332  13.4878 0003051  42.0132 318.1094 15.59029500  5825
BOTAN
1 65942U 98067XP  25299.24137569  .00066958  00000-0  10490-2 0  9990
2 65942  51.6336  17.3634 0004234 332.8150  27.2618 15.53081115  2469
